EZY83RK LIPZ-EGKK

Flight info

Callsign EZY83RK
Flight time 1h 46m
Altitude 36000
Route ROKIB DCT SUXAN DCT RONAG DCT ELMUR DCT RIPUS DCT DITON DCT HOC DCT LUL DCT RLP DCT ROTSI DCT KOTUN DCT NINAL DCT KESAX DCT KUNAV
Aircraft A21N/M-SDE2E3FGHIJ1RWXYZ/LB1G1

Departure

Time 2026-05-07 07:44
Airport Venice Marco Polo Airport (LIPZ)

Arrival

Time 2026-05-07 09:30
Airport London Gatwick Airport (EGKK)
Time Latitude Longitude Altitude Speed Heading
2026-05-07 07:06 45.50800 12.34681 19 ft 0 kts 42°
2026-05-07 07:08 45.50800 12.34680 19 ft 0 kts 42°
2026-05-07 07:32 45.50795 12.34674 19 ft 2 kts 43°
2026-05-07 07:32 45.50784 12.34657 19 ft 2 kts 48°
2026-05-07 07:33 45.50773 12.34639 20 ft 2 kts 54°
2026-05-07 07:33 45.50764 12.34619 21 ft 2 kts 61°
2026-05-07 07:33 45.50758 12.34597 18 ft 2 kts 73°
2026-05-07 07:33 45.50755 12.34574 19 ft 2 kts 89°
2026-05-07 07:34 45.50757 12.34551 18 ft 2 kts 109°
2026-05-07 07:34 45.50765 12.34530 20 ft 2 kts 128°
2026-05-07 07:34 45.50768 12.34525 20 ft 0 kts 134°
2026-05-07 07:37 45.50767 12.34526 18 ft 1 kts 134°
2026-05-07 07:37 45.50762 12.34534 20 ft 2 kts 134°
2026-05-07 07:38 45.50744 12.34561 18 ft 5 kts 133°
2026-05-07 07:38 45.50713 12.34608 18 ft 8 kts 132°
2026-05-07 07:38 45.50668 12.34679 19 ft 11 kts 132°
2026-05-07 07:38 45.50594 12.34739 20 ft 14 kts 166°
2026-05-07 07:39 45.50515 12.34640 23 ft 17 kts 225°
2026-05-07 07:39 45.50427 12.34519 24 ft 18 kts 223°
2026-05-07 07:39 45.50332 12.34393 26 ft 19 kts 220°
2026-05-07 07:39 45.50229 12.34267 23 ft 20 kts 222°
2026-05-07 07:40 45.50123 12.34134 22 ft 21 kts 221°
2026-05-07 07:40 45.50014 12.33994 20 ft 21 kts 223°
2026-05-07 07:40 45.49903 12.33847 20 ft 22 kts 222°
2026-05-07 07:40 45.49784 12.33698 24 ft 23 kts 221°
2026-05-07 07:41 45.49648 12.33568 23 ft 23 kts 223°
2026-05-07 07:41 45.49571 12.33529 23 ft 13 kts 150°
2026-05-07 07:41 45.49510 12.33603 23 ft 8 kts 133°
2026-05-07 07:41 45.49470 12.33663 23 ft 9 kts 133°
2026-05-07 07:42 45.49427 12.33733 22 ft 10 kts 118°
2026-05-07 07:42 45.49452 12.33823 21 ft 11 kts 53°
2026-05-07 07:42 45.49473 12.33855 20 ft 0 kts 39°
2026-05-07 07:43 45.49476 12.33858 20 ft 0 kts 39°
2026-05-07 07:43 45.49578 12.33987 20 ft 54 kts 42°
2026-05-07 07:43 45.50070 12.34616 21 ft 132 kts 42°
2026-05-07 07:43 45.50906 12.35677 123 ft 178 kts 41°
2026-05-07 07:44 45.51796 12.36856 994 ft 172 kts 43°
2026-05-07 07:44 45.52636 12.38081 1806 ft 174 kts 46°
2026-05-07 07:44 45.53180 12.38934 2301 ft 177 kts 50°
2026-05-07 07:44 45.53674 12.40556 2980 ft 185 kts 84°
2026-05-07 07:45 45.53540 12.42421 3592 ft 196 kts 102°
2026-05-07 07:45 45.53289 12.44391 4272 ft 208 kts 102°
2026-05-07 07:45 45.53055 12.46481 4965 ft 218 kts 101°
2026-05-07 07:45 45.52828 12.48646 5771 ft 223 kts 101°
2026-05-07 07:46 45.52528 12.50818 6600 ft 224 kts 112°
2026-05-07 07:46 45.51610 12.52552 7335 ft 221 kts 148°
2026-05-07 07:46 45.50175 12.53212 8074 ft 219 kts 182°
2026-05-07 07:46 45.48703 12.52721 8866 ft 219 kts 203°
2026-05-07 07:47 45.47336 12.51765 9687 ft 220 kts 217°
2026-05-07 07:47 45.46366 12.50063 10219 ft 234 kts 248°
2026-05-07 07:47 45.46186 12.47667 10502 ft 260 kts 278°
2026-05-07 07:47 45.46726 12.45068 10805 ft 286 kts 287°
2026-05-07 07:48 45.47411 12.42289 11111 ft 309 kts 287°
2026-05-07 07:48 45.48112 12.39328 11676 ft 320 kts 286°
2026-05-07 07:48 45.48803 12.36289 12462 ft 324 kts 285°
2026-05-07 07:48 45.49493 12.33208 13299 ft 328 kts 285°
2026-05-07 07:49 45.50184 12.30094 14088 ft 331 kts 285°
2026-05-07 07:49 45.50870 12.26956 14819 ft 334 kts 284°
2026-05-07 07:49 45.51557 12.23781 15545 ft 337 kts 284°
2026-05-07 07:49 45.52240 12.20623 16275 ft 340 kts 284°
2026-05-07 07:50 45.52948 12.17387 16998 ft 343 kts 284°
2026-05-07 07:50 45.53664 12.14132 17718 ft 346 kts 284°
2026-05-07 07:50 45.54383 12.10840 18414 ft 349 kts 284°
2026-05-07 07:50 45.55107 12.07523 19037 ft 351 kts 283°
2026-05-07 07:51 45.55835 12.04180 19662 ft 354 kts 283°
2026-05-07 07:51 45.56558 12.00828 20277 ft 356 kts 282°
2026-05-07 07:51 45.57339 11.97453 20873 ft 361 kts 287°
2026-05-07 07:51 45.58623 11.94313 21451 ft 374 kts 303°
2026-05-07 07:52 45.60615 11.91814 22014 ft 391 kts 322°
2026-05-07 07:52 45.63072 11.90021 22563 ft 400 kts 328°
2026-05-07 07:52 45.65624 11.88368 23098 ft 405 kts 328°
2026-05-07 07:52 45.68195 11.86686 23600 ft 409 kts 328°
2026-05-07 07:53 45.70779 11.84952 24038 ft 412 kts 327°
2026-05-07 07:53 45.73381 11.83180 24488 ft 415 kts 327°
2026-05-07 07:53 45.75991 11.81383 24933 ft 418 kts 327°
2026-05-07 07:53 45.78620 11.79564 25393 ft 420 kts 327°
2026-05-07 07:54 45.81260 11.77735 25826 ft 424 kts 327°
2026-05-07 07:54 45.83925 11.75886 26254 ft 427 kts 327°
2026-05-07 07:54 45.86609 11.74025 26660 ft 431 kts 327°
2026-05-07 07:54 45.89325 11.72144 27069 ft 434 kts 327°
2026-05-07 07:55 45.92006 11.70187 27489 ft 432 kts 322°
2026-05-07 07:55 45.94357 11.67587 27844 ft 421 kts 307°
2026-05-07 07:55 45.96210 11.64402 28199 ft 415 kts 299°
2026-05-07 07:55 45.97930 11.61057 28563 ft 417 kts 298°
2026-05-07 07:56 45.99656 11.57685 28938 ft 420 kts 298°
2026-05-07 07:56 46.01406 11.54305 29315 ft 423 kts 299°
2026-05-07 07:56 46.03177 11.50911 29645 ft 425 kts 299°
2026-05-07 07:56 46.04962 11.47504 29974 ft 428 kts 299°
2026-05-07 07:57 46.06758 11.44068 30285 ft 430 kts 299°
2026-05-07 07:57 46.08554 11.40619 30589 ft 433 kts 299°
2026-05-07 07:57 46.10367 11.37140 30874 ft 435 kts 299°
2026-05-07 07:57 46.12170 11.33685 31153 ft 437 kts 299°
2026-05-07 07:58 46.14020 11.30127 31469 ft 440 kts 300°
2026-05-07 07:58 46.15837 11.26642 31751 ft 442 kts 300°
2026-05-07 07:58 46.17708 11.23044 32052 ft 443 kts 300°
2026-05-07 07:58 46.19537 11.19526 32333 ft 445 kts 300°
2026-05-07 07:59 46.21394 11.15949 32647 ft 446 kts 300°
2026-05-07 07:59 46.23249 11.12367 32991 ft 445 kts 300°
2026-05-07 07:59 46.25095 11.08787 33358 ft 444 kts 300°
2026-05-07 07:59 46.26944 11.05206 33671 ft 444 kts 300°
2026-05-07 08:00 46.28781 11.01640 33980 ft 443 kts 300°
2026-05-07 08:00 46.30630 10.98051 34216 ft 443 kts 300°
2026-05-07 08:00 46.32467 10.94477 34418 ft 443 kts 301°
2026-05-07 08:00 46.34309 10.90892 34630 ft 443 kts 301°
2026-05-07 08:01 46.36142 10.87317 34840 ft 443 kts 301°
2026-05-07 08:01 46.37975 10.83744 35029 ft 442 kts 301°
2026-05-07 08:01 46.39802 10.80175 35210 ft 441 kts 301°
2026-05-07 08:01 46.41632 10.76595 35344 ft 441 kts 301°
2026-05-07 08:02 46.43452 10.73028 35488 ft 441 kts 301°
2026-05-07 08:02 46.45281 10.69436 35642 ft 442 kts 301°
2026-05-07 08:02 46.47106 10.65852 35803 ft 442 kts 301°
2026-05-07 08:02 46.48932 10.62264 35977 ft 442 kts 301°
2026-05-07 08:03 46.50759 10.58661 36038 ft 443 kts 302°
2026-05-07 08:03 46.54408 10.51462 36029 ft 443 kts 302°
2026-05-07 08:04 46.58834 10.45151 36011 ft 454 kts 320°
2026-05-07 08:04 46.64046 10.39928 36003 ft 455 kts 321°
2026-05-07 08:05 46.69255 10.34703 36009 ft 454 kts 321°
2026-05-07 08:05 46.74436 10.29426 36009 ft 453 kts 319°
2026-05-07 08:06 46.78674 10.22869 36015 ft 442 kts 297°
2026-05-07 08:06 46.81175 10.14790 36024 ft 436 kts 288°
2026-05-07 08:07 46.83435 10.06647 36023 ft 436 kts 289°
2026-05-07 08:07 46.85757 9.98460 36023 ft 436 kts 289°
2026-05-07 08:08 46.88073 9.90266 36026 ft 436 kts 289°
2026-05-07 08:08 46.90390 9.82074 36030 ft 437 kts 289°
2026-05-07 08:09 46.92712 9.73855 36031 ft 437 kts 289°
2026-05-07 08:09 46.95007 9.65633 36027 ft 437 kts 289°
2026-05-07 08:10 46.97305 9.57397 36014 ft 437 kts 289°
2026-05-07 08:10 46.99607 9.49156 36020 ft 437 kts 289°
2026-05-07 08:11 47.01903 9.40920 36016 ft 437 kts 289°
2026-05-07 08:11 47.04197 9.32646 36027 ft 437 kts 289°
2026-05-07 08:12 47.06467 9.24393 36030 ft 437 kts 289°
2026-05-07 08:12 47.08739 9.16133 36046 ft 437 kts 289°
2026-05-07 08:13 47.11005 9.07861 36038 ft 437 kts 289°
2026-05-07 08:13 47.13263 8.99585 36043 ft 437 kts 289°
2026-05-07 08:14 47.15513 8.91286 36055 ft 437 kts 289°
2026-05-07 08:14 47.17662 8.82937 36049 ft 437 kts 288°
2026-05-07 08:15 47.19794 8.74575 36048 ft 437 kts 288°
2026-05-07 08:15 47.21912 8.66202 36049 ft 437 kts 288°
2026-05-07 08:16 47.24033 8.57812 36048 ft 437 kts 288°
2026-05-07 08:16 47.26147 8.49425 36049 ft 437 kts 288°
2026-05-07 08:17 47.28251 8.41093 36045 ft 437 kts 288°
2026-05-07 08:17 47.30374 8.32647 36041 ft 437 kts 288°
2026-05-07 08:18 47.32458 8.24296 36042 ft 437 kts 288°
2026-05-07 08:18 47.34544 8.15876 36037 ft 437 kts 288°
2026-05-07 08:19 47.36625 8.07467 36033 ft 437 kts 288°
2026-05-07 08:19 47.38704 7.99038 36029 ft 437 kts 288°
2026-05-07 08:20 47.40773 7.90604 36036 ft 437 kts 288°
2026-05-07 08:20 47.42752 7.82506 36042 ft 437 kts 288°
2026-05-07 08:21 47.44812 7.74053 36043 ft 437 kts 288°
2026-05-07 08:21 47.46792 7.65577 36047 ft 436 kts 284°
2026-05-07 08:22 47.48273 7.56874 36054 ft 436 kts 283°
2026-05-07 08:22 47.49719 7.48166 36053 ft 436 kts 283°
2026-05-07 08:23 47.51162 7.39460 36049 ft 436 kts 283°
2026-05-07 08:23 47.52608 7.30737 36046 ft 436 kts 283°
2026-05-07 08:24 47.54045 7.22021 36044 ft 436 kts 283°
2026-05-07 08:24 47.55465 7.13338 36043 ft 436 kts 283°
2026-05-07 08:25 47.56885 7.04616 36049 ft 436 kts 283°
2026-05-07 08:25 47.58301 6.95883 36052 ft 436 kts 282°
2026-05-07 08:26 47.60412 6.82774 36053 ft 436 kts 282°
2026-05-07 08:26 47.61808 6.74038 36052 ft 436 kts 282°
2026-05-07 08:27 47.63190 6.65278 36050 ft 436 kts 282°
2026-05-07 08:27 47.64576 6.56526 36044 ft 436 kts 282°
2026-05-07 08:28 47.65966 6.47777 36043 ft 436 kts 282°
2026-05-07 08:28 47.67340 6.39014 36041 ft 436 kts 282°
2026-05-07 08:29 47.68719 6.30261 36037 ft 436 kts 284°
2026-05-07 08:29 47.70497 6.21654 36039 ft 436 kts 287°
2026-05-07 08:30 47.72333 6.13062 36039 ft 436 kts 287°
2026-05-07 08:30 47.74155 6.04473 36038 ft 436 kts 287°
2026-05-07 08:31 47.75968 5.95871 36037 ft 436 kts 287°
2026-05-07 08:31 47.77764 5.87316 36039 ft 436 kts 287°
2026-05-07 08:32 47.79559 5.78709 36039 ft 436 kts 287°
2026-05-07 08:32 47.81351 5.70086 36040 ft 436 kts 287°
2026-05-07 08:33 47.83141 5.61472 36040 ft 436 kts 287°
2026-05-07 08:33 47.84629 5.54252 36049 ft 436 kts 286°
2026-05-07 08:34 47.86396 5.45605 36044 ft 436 kts 286°
2026-05-07 08:34 47.88163 5.36976 36040 ft 436 kts 287°
2026-05-07 08:35 47.89950 5.28424 36042 ft 436 kts 290°
2026-05-07 08:35 47.91264 5.24344 36040 ft 437 kts 301°
2026-05-07 08:35 47.93084 5.20723 36046 ft 438 kts 310°
2026-05-07 08:36 47.97199 5.14020 36046 ft 438 kts 311°
2026-05-07 08:36 48.01314 5.07305 36045 ft 438 kts 311°
2026-05-07 08:37 48.05410 5.00544 36048 ft 438 kts 311°
2026-05-07 08:37 48.09491 4.93781 36052 ft 438 kts 311°
2026-05-07 08:38 48.13574 4.86996 36047 ft 438 kts 311°
2026-05-07 08:38 48.17650 4.80195 36049 ft 438 kts 311°
2026-05-07 08:39 48.21721 4.73393 36047 ft 438 kts 311°
2026-05-07 08:39 48.25786 4.66578 36050 ft 438 kts 311°
2026-05-07 08:40 48.29841 4.59771 36050 ft 438 kts 311°
2026-05-07 08:40 48.33895 4.52935 36051 ft 438 kts 311°
2026-05-07 08:41 48.37943 4.46096 36052 ft 438 kts 311°
2026-05-07 08:41 48.41988 4.39254 36052 ft 437 kts 311°
2026-05-07 08:42 48.46010 4.32409 36052 ft 437 kts 311°
2026-05-07 08:42 48.50036 4.25551 36052 ft 437 kts 311°
2026-05-07 08:43 48.54058 4.18693 36051 ft 436 kts 311°
2026-05-07 08:43 48.58078 4.11822 36053 ft 436 kts 311°
2026-05-07 08:44 48.62088 4.04941 36050 ft 436 kts 310°
2026-05-07 08:44 48.66095 3.98043 36053 ft 437 kts 310°
2026-05-07 08:45 48.70105 3.91129 36053 ft 437 kts 310°
2026-05-07 08:45 48.74249 3.84410 36053 ft 437 kts 315°
2026-05-07 08:46 48.78581 3.77958 36053 ft 437 kts 315°
2026-05-07 08:46 48.82923 3.71497 36053 ft 437 kts 315°
2026-05-07 08:47 48.87271 3.65016 36052 ft 437 kts 315°
2026-05-07 08:47 48.91611 3.58529 36057 ft 438 kts 314°
2026-05-07 08:48 48.95941 3.52021 36054 ft 438 kts 314°
2026-05-07 08:48 49.00247 3.45536 36057 ft 438 kts 314°
2026-05-07 08:49 49.04600 3.38948 36051 ft 438 kts 314°
2026-05-07 08:49 49.08895 3.32435 36053 ft 439 kts 314°
2026-05-07 08:50 49.13260 3.25828 36053 ft 439 kts 314°
2026-05-07 08:50 49.17551 3.19288 36054 ft 439 kts 314°
2026-05-07 08:51 49.21898 3.12657 36053 ft 439 kts 314°
2026-05-07 08:51 49.26184 3.06098 36055 ft 439 kts 314°
2026-05-07 08:52 49.30525 2.99449 36057 ft 439 kts 314°
2026-05-07 08:52 49.34812 2.92869 36056 ft 439 kts 314°
2026-05-07 08:53 49.39149 2.86201 36056 ft 438 kts 314°
2026-05-07 08:53 49.43420 2.79607 36051 ft 439 kts 314°
2026-05-07 08:54 49.47722 2.72967 36051 ft 438 kts 314°
2026-05-07 08:54 49.52021 2.66298 36053 ft 439 kts 313°
2026-05-07 08:55 49.56306 2.59613 36059 ft 438 kts 313°
2026-05-07 08:55 49.60575 2.52906 36055 ft 438 kts 311°
2026-05-07 08:56 49.64544 2.45779 36060 ft 438 kts 309°
2026-05-07 08:56 49.68484 2.38604 36063 ft 438 kts 309°
2026-05-07 08:57 49.72418 2.31417 36059 ft 438 kts 309°
2026-05-07 08:57 49.76350 2.24234 36060 ft 438 kts 309°
2026-05-07 08:58 49.80278 2.17046 36060 ft 434 kts 309°
2026-05-07 08:58 49.84142 2.09938 35648 ft 425 kts 309°
2026-05-07 08:59 49.86033 2.06454 35140 ft 421 kts 309°
2026-05-07 08:59 49.87908 2.02991 34621 ft 417 kts 308°
2026-05-07 08:59 49.89760 1.99555 34105 ft 414 kts 308°
2026-05-07 08:59 49.91602 1.96136 33500 ft 411 kts 308°
2026-05-07 09:00 49.93432 1.92745 32906 ft 408 kts 308°
2026-05-07 09:00 49.95251 1.89374 32320 ft 405 kts 308°
2026-05-07 09:00 49.97047 1.86034 31759 ft 402 kts 308°
2026-05-07 09:00 49.98834 1.82720 31211 ft 399 kts 309°
2026-05-07 09:01 50.00606 1.79436 30681 ft 395 kts 308°
2026-05-07 09:01 50.02364 1.76169 30165 ft 392 kts 308°
2026-05-07 09:01 50.04109 1.72924 29570 ft 389 kts 308°
2026-05-07 09:01 50.05835 1.69717 28989 ft 386 kts 308°
2026-05-07 09:02 50.07642 1.66647 28415 ft 384 kts 315°
2026-05-07 09:02 50.09626 1.63894 27865 ft 381 kts 317°
2026-05-07 09:02 50.11625 1.61205 27323 ft 378 kts 317°
2026-05-07 09:02 50.13605 1.58539 26803 ft 375 kts 317°
2026-05-07 09:03 50.15565 1.55890 26291 ft 372 kts 317°
2026-05-07 09:03 50.17509 1.53250 25796 ft 369 kts 317°
2026-05-07 09:03 50.19433 1.50637 25310 ft 366 kts 317°
2026-05-07 09:03 50.21347 1.48032 24834 ft 363 kts 317°
2026-05-07 09:04 50.23238 1.45453 24382 ft 360 kts 317°
2026-05-07 09:04 50.25113 1.42892 23920 ft 357 kts 317°
2026-05-07 09:04 50.26974 1.40343 23453 ft 354 kts 317°
2026-05-07 09:04 50.28816 1.37809 22932 ft 351 kts 317°
2026-05-07 09:05 50.30640 1.35298 22427 ft 348 kts 317°
2026-05-07 09:05 50.32450 1.32811 21938 ft 345 kts 317°
2026-05-07 09:05 50.34251 1.30342 21458 ft 343 kts 318°
2026-05-07 09:05 50.36033 1.27890 20985 ft 340 kts 317°
2026-05-07 09:06 50.37797 1.25450 20526 ft 337 kts 317°
2026-05-07 09:06 50.39559 1.23023 20077 ft 335 kts 317°
2026-05-07 09:06 50.41301 1.20618 19636 ft 333 kts 317°
2026-05-07 09:06 50.43030 1.18224 19192 ft 331 kts 317°
2026-05-07 09:07 50.44749 1.15850 18787 ft 329 kts 318°
2026-05-07 09:07 50.46464 1.13495 18374 ft 327 kts 318°
2026-05-07 09:07 50.48144 1.11172 17920 ft 325 kts 318°
2026-05-07 09:07 50.49835 1.08841 17448 ft 323 kts 318°
2026-05-07 09:08 50.51503 1.06489 16992 ft 321 kts 315°
2026-05-07 09:08 50.53048 1.03973 16546 ft 319 kts 312°
2026-05-07 09:08 50.54552 1.01439 16112 ft 317 kts 312°
2026-05-07 09:08 50.56050 0.98908 15686 ft 315 kts 312°
2026-05-07 09:09 50.57540 0.96389 15254 ft 314 kts 312°
2026-05-07 09:09 50.59022 0.93884 14857 ft 312 kts 312°
2026-05-07 09:09 50.60499 0.91386 14452 ft 310 kts 312°
2026-05-07 09:09 50.61962 0.88909 14059 ft 309 kts 312°
2026-05-07 09:10 50.63422 0.86429 13651 ft 307 kts 312°
2026-05-07 09:10 50.64873 0.83972 13200 ft 306 kts 312°
2026-05-07 09:10 50.66320 0.81523 12761 ft 304 kts 312°
2026-05-07 09:10 50.67729 0.79053 12350 ft 302 kts 309°
2026-05-07 09:11 50.69056 0.76490 11936 ft 301 kts 308°
2026-05-07 09:11 50.70360 0.73929 11529 ft 299 kts 308°
2026-05-07 09:11 50.71662 0.71368 11130 ft 298 kts 309°
2026-05-07 09:11 50.72957 0.68827 10737 ft 296 kts 309°
2026-05-07 09:12 50.74243 0.66307 10360 ft 295 kts 309°
2026-05-07 09:12 50.75527 0.63788 9963 ft 293 kts 309°
2026-05-07 09:12 50.76802 0.61281 9558 ft 292 kts 309°
2026-05-07 09:12 50.78069 0.58786 9144 ft 290 kts 309°
2026-05-07 09:13 50.79330 0.56306 8732 ft 289 kts 309°
2026-05-07 09:13 50.80587 0.53835 8334 ft 288 kts 308°
2026-05-07 09:13 50.81837 0.51374 7949 ft 286 kts 308°
2026-05-07 09:13 50.83082 0.48920 7554 ft 285 kts 308°
2026-05-07 09:14 50.84316 0.46484 7175 ft 284 kts 308°
2026-05-07 09:14 50.85544 0.44052 6783 ft 282 kts 308°
2026-05-07 09:14 50.86763 0.41640 6481 ft 278 kts 308°
2026-05-07 09:14 50.87618 0.39945 6271 ft 274 kts 308°
2026-05-07 09:15 50.88782 0.37635 5998 ft 270 kts 308°
2026-05-07 09:15 50.89952 0.35317 5729 ft 267 kts 308°
2026-05-07 09:15 50.91100 0.33041 5477 ft 262 kts 308°
2026-05-07 09:15 50.92233 0.30781 5221 ft 256 kts 308°
2026-05-07 09:16 50.93316 0.28626 4980 ft 250 kts 308°
2026-05-07 09:16 50.94330 0.26597 4755 ft 245 kts 308°
2026-05-07 09:16 50.95374 0.24503 4515 ft 239 kts 307°
2026-05-07 09:16 50.96389 0.22448 4284 ft 234 kts 307°
2026-05-07 09:17 50.97381 0.20434 4055 ft 230 kts 307°
2026-05-07 09:17 50.98299 0.18569 3857 ft 229 kts 307°
2026-05-07 09:17 50.99277 0.16577 3654 ft 229 kts 307°
2026-05-07 09:17 51.00076 0.14421 3432 ft 227 kts 285°
2026-05-07 09:18 51.00274 0.11959 3312 ft 226 kts 272°
2026-05-07 09:18 51.00310 0.10288 3181 ft 226 kts 271°
2026-05-07 09:18 51.00350 0.07766 2988 ft 226 kts 271°
2026-05-07 09:18 51.00388 0.05268 2947 ft 226 kts 271°
2026-05-07 09:19 51.00426 0.02779 2965 ft 226 kts 271°
2026-05-07 09:19 51.00465 0.00312 2978 ft 226 kts 271°
2026-05-07 09:19 51.00505 -0.02212 2990 ft 226 kts 271°
2026-05-07 09:19 51.00544 -0.04710 2995 ft 226 kts 271°
2026-05-07 09:20 51.00582 -0.07198 2995 ft 226 kts 271°
2026-05-07 09:20 51.00619 -0.09698 2992 ft 226 kts 271°
2026-05-07 09:20 51.00656 -0.12160 2990 ft 226 kts 271°
2026-05-07 09:20 51.00692 -0.14648 2991 ft 226 kts 271°
2026-05-07 09:21 51.00728 -0.17171 2992 ft 225 kts 271°
2026-05-07 09:21 51.00764 -0.19650 2996 ft 225 kts 271°
2026-05-07 09:21 51.00799 -0.22129 2993 ft 225 kts 271°
2026-05-07 09:21 51.00835 -0.24616 2991 ft 225 kts 271°
2026-05-07 09:22 51.00871 -0.27092 2992 ft 225 kts 271°
2026-05-07 09:22 51.00907 -0.29585 2992 ft 225 kts 271°
2026-05-07 09:22 51.00942 -0.32060 2991 ft 225 kts 271°
2026-05-07 09:22 51.00975 -0.34510 2993 ft 224 kts 271°
2026-05-07 09:23 51.01009 -0.36979 2978 ft 214 kts 271°
2026-05-07 09:23 51.01041 -0.39259 2965 ft 203 kts 271°
2026-05-07 09:23 51.01074 -0.41494 2975 ft 203 kts 271°
2026-05-07 09:23 51.01386 -0.43620 2969 ft 203 kts 301°
2026-05-07 09:24 51.02380 -0.45182 2990 ft 205 kts 327°
2026-05-07 09:24 51.03618 -0.46310 3003 ft 205 kts 330°
2026-05-07 09:24 51.04868 -0.47388 2999 ft 205 kts 331°
2026-05-07 09:24 51.06137 -0.48476 2992 ft 205 kts 331°
2026-05-07 09:25 51.07390 -0.49548 2987 ft 204 kts 331°
2026-05-07 09:25 51.08671 -0.50433 2976 ft 205 kts 353°
2026-05-07 09:25 51.10047 -0.49991 2979 ft 205 kts 34°
2026-05-07 09:25 51.10878 -0.48298 3018 ft 184 kts 70°
2026-05-07 09:26 51.11143 -0.46439 3040 ft 163 kts 82°
2026-05-07 09:26 51.11307 -0.44754 3003 ft 144 kts 81°
2026-05-07 09:26 51.11495 -0.43058 3022 ft 166 kts 81°
2026-05-07 09:26 51.11725 -0.41246 2910 ft 167 kts 78°
2026-05-07 09:27 51.11971 -0.39450 2701 ft 165 kts 78°
2026-05-07 09:27 51.12218 -0.37671 2467 ft 164 kts 78°
2026-05-07 09:27 51.12708 -0.34152 2004 ft 162 kts 79°
2026-05-07 09:28 51.12944 -0.32460 1772 ft 144 kts 79°
2026-05-07 09:28 51.13151 -0.30977 1564 ft 136 kts 79°
2026-05-07 09:28 51.13355 -0.29513 1405 ft 135 kts 79°
2026-05-07 09:28 51.13558 -0.28058 1179 ft 134 kts 78°
2026-05-07 09:29 51.13760 -0.26617 963 ft 132 kts 78°
2026-05-07 09:29 51.13960 -0.25192 806 ft 132 kts 78°
2026-05-07 09:29 51.14158 -0.23771 687 ft 131 kts 78°
2026-05-07 09:29 51.14351 -0.22366 500 ft 130 kts 78°
2026-05-07 09:30 51.14543 -0.20962 301 ft 129 kts 77°
2026-05-07 09:30 51.14737 -0.19587 216 ft 118 kts 77°
2026-05-07 09:30 51.14871 -0.18630 219 ft 58 kts 78°
2026-05-07 09:30 51.14922 -0.18254 213 ft 26 kts 77°
2026-05-07 09:31 51.14966 -0.17999 215 ft 19 kts 69°
2026-05-07 09:31 51.15049 -0.17830 213 ft 20 kts 52°
2026-05-07 09:31 51.15091 -0.17766 212 ft 7 kts 17°
2026-05-07 09:31 51.15100 -0.17763 211 ft 0 kts
2026-05-07 09:33 51.15102 -0.17762 211 ft 1 kts
2026-05-07 09:33 51.15118 -0.17764 211 ft 4 kts 352°
2026-05-07 09:33 51.15151 -0.17772 215 ft 6 kts 352°
2026-05-07 09:33 51.15199 -0.17779 210 ft 8 kts 356°
2026-05-07 09:34 51.15241 -0.17834 217 ft 10 kts 272°
2026-05-07 09:34 51.15230 -0.17956 218 ft 12 kts 253°
2026-05-07 09:34 51.15244 -0.18086 211 ft 14 kts 326°
2026-05-07 09:34 51.15347 -0.18126 210 ft 16 kts 347°
2026-05-07 09:35 51.15415 -0.18152 212 ft 10 kts 346°
2026-05-07 09:35 51.15488 -0.18185 218 ft 12 kts 343°
2026-05-07 09:35 51.15575 -0.18223 210 ft 14 kts 347°
2026-05-07 09:35 51.15629 -0.18241 210 ft 8 kts 358°
2026-05-07 09:36 51.15685 -0.18188 219 ft 11 kts 34°
2026-05-07 09:36 51.15757 -0.18132 213 ft 13 kts 53°
2026-05-07 09:36 51.15802 -0.18075 217 ft 8 kts
2026-05-07 09:36 51.15866 -0.18084 210 ft 9 kts 348°
2026-05-07 09:37 51.15895 -0.18022 213 ft 0 kts 84°
2026-05-07 09:37 51.15897 -0.18007 210 ft 3 kts 75°
2026-05-07 09:37 51.15901 -0.17979 212 ft 0 kts 76°
2026-05-07 09:38 51.15902 -0.17973 213 ft 0 kts 75°